Time,TemperatureF,DewpointF,PressureIn,WindDirection,WindDirectionDegrees,WindSpeedMPH,WindSpeedGustMPH,Humidity,HourlyPrecipIn,Conditions,Clouds,dailyrainin,SoftwareType,DateUTC
2013-09-14 00:00:00,51.4,51.4,30.02,NNE,13,6.0,6.0,100,0.00,,,0.00,Wunderground v.1.15,2013-09-13 23:00:00,
2013-09-14 00:10:00,51.5,51.5,30.02,North,355,5.0,7.0,100,0.00,,,0.00,Wunderground v.1.15,2013-09-13 23:10:00,
2013-09-14 00:20:00,51.6,51.6,30.02,North,5,7.0,7.0,100,0.00,,,0.00,Wunderground v.1.15,2013-09-13 23:20:00,
2013-09-14 00:30:00,51.6,51.6,30.02,ESE,121,5.0,5.0,100,0.00,,,0.00,Wunderground v.1.15,2013-09-13 23:30:00,
2013-09-14 00:40:00,51.6,51.3,30.02,North,355,4.0,5.0,99,0.00,,,0.00,Wunderground v.1.15,2013-09-13 23:40:00,
2013-09-14 00:50:00,51.5,51.2,30.02,NNE,18,6.0,6.0,99,0.00,,,0.00,Wunderground v.1.15,2013-09-13 23:50:00,
2013-09-14 01:00:00,51.5,51.2,30.01,NNE,21,5.0,6.0,99,0.00,,,0.00,Wunderground v.1.15,2013-09-14 00:00:00,
2013-09-14 01:10:00,51.7,51.4,30.01,North,350,5.0,7.0,99,0.00,,,0.00,Wunderground v.1.15,2013-09-14 00:10:00,
2013-09-14 01:20:00,51.7,51.2,30.02,NE,52,6.0,10.0,98,0.00,,,0.00,Wunderground v.1.15,2013-09-14 00:20:00,
2013-09-14 01:25:00,51.6,51.1,30.02,North,355,6.0,10.0,98,0.00,,,0.00,Wunderground v.1.15,2013-09-14 00:25:00,
2013-09-14 01:30:00,51.7,51.2,30.02,NW,311,6.0,6.0,98,0.00,,,0.00,Wunderground v.1.15,2013-09-14 00:30:00,
2013-09-14 01:35:00,51.7,51.2,30.02,NNW,327,5.0,6.0,98,0.00,,,0.00,Wunderground v.1.15,2013-09-14 00:35:00,
2013-09-14 01:40:00,51.8,51.3,30.01,North,355,6.0,9.0,98,0.00,,,0.00,Wunderground v.1.15,2013-09-14 00:40:00,
2013-09-14 01:55:00,51.8,51.0,30.01,North,355,7.0,10.0,97,0.00,,,0.00,Wunderground v.1.15,2013-09-14 00:55:00,
2013-09-14 02:05:00,51.9,50.8,30.01,NNE,32,6.0,7.0,96,0.00,,,0.00,Wunderground v.1.15,2013-09-14 01:05:00,
2013-09-14 02:15:00,52.1,50.7,30.01,NNE,12,5.0,6.0,95,0.00,,,0.00,Wunderground v.1.15,2013-09-14 01:15:00,
2013-09-14 02:21:00,52.2,50.8,30.01,NNW,347,5.0,5.0,95,0.00,,,0.00,Wunderground v.1.15,2013-09-14 01:21:00,
2013-09-14 02:30:00,52.3,50.6,30.01,North,350,6.0,6.0,94,0.00,,,0.00,Wunderground v.1.15,2013-09-14 01:30:00,
2013-09-14 02:35:00,52.2,50.2,30.01,NNE,17,6.0,6.0,93,0.00,,,0.00,Wunderground v.1.15,2013-09-14 01:35:00,
2013-09-14 02:40:00,52.1,49.6,30.01,NNW,345,6.0,8.0,91,0.00,,,0.00,Wunderground v.1.15,2013-09-14 01:40:00,
2013-09-14 02:50:00,52.0,49.2,30.01,North,350,7.0,10.0,90,0.00,,,0.00,Wunderground v.1.15,2013-09-14 01:50:00,
2013-09-14 02:55:00,52.1,49.6,30.01,North,11,6.0,10.0,91,0.00,,,0.00,Wunderground v.1.15,2013-09-14 01:55:00,
2013-09-14 03:00:00,52.3,49.8,30.01,NNE,15,6.0,6.0,91,0.00,,,0.00,Wunderground v.1.15,2013-09-14 02:00:00,
2013-09-14 03:05:00,52.3,49.5,30.01,North,5,6.0,6.0,90,0.00,,,0.00,Wunderground v.1.15,2013-09-14 02:05:00,
2013-09-14 03:15:00,52.2,49.1,30.01,North,360,6.0,6.0,89,0.00,,,0.00,Wunderground v.1.15,2013-09-14 02:15:00,
2013-09-14 03:20:00,52.2,48.8,30.01,NNE,16,7.0,7.0,88,0.00,,,0.00,Wunderground v.1.15,2013-09-14 02:20:00,
2013-09-14 03:30:00,52.1,48.7,30.01,North,11,6.0,6.0,88,0.00,,,0.00,Wunderground v.1.15,2013-09-14 02:30:00,
2013-09-14 03:35:00,52.2,48.4,30.01,SW,226,5.0,6.0,87,0.00,,,0.00,Wunderground v.1.15,2013-09-14 02:35:00,
2013-09-14 03:40:00,52.2,48.4,30.01,North,11,6.0,6.0,87,0.00,,,0.00,Wunderground v.1.15,2013-09-14 02:40:00,
2013-09-14 03:45:00,52.3,48.5,30.01,NNE,17,6.0,10.0,87,0.00,,,0.00,Wunderground v.1.15,2013-09-14 02:45:00,
2013-09-14 03:50:00,52.3,48.9,30.01,NE,34,6.0,6.0,88,0.00,,,0.00,Wunderground v.1.15,2013-09-14 02:50:00,
2013-09-14 04:00:00,52.4,48.6,30.01,NNE,22,5.0,10.0,87,0.00,,,0.00,Wunderground v.1.15,2013-09-14 03:00:00,
2013-09-14 04:05:00,52.5,48.7,30.01,NNE,14,5.0,10.0,87,0.00,,,0.00,Wunderground v.1.15,2013-09-14 03:05:00,
2013-09-14 04:10:00,52.5,48.4,30.01,North,5,5.0,6.0,86,0.00,,,0.00,Wunderground v.1.15,2013-09-14 03:10:00,
2013-09-14 04:15:00,52.4,48.3,30.01,North,9,4.0,6.0,86,0.00,,,0.00,Wunderground v.1.15,2013-09-14 03:15:00,
2013-09-14 04:20:00,52.4,48.0,30.01,North,355,4.0,9.0,85,0.00,,,0.00,Wunderground v.1.15,2013-09-14 03:20:00,
2013-09-14 04:30:00,52.5,48.1,30.01,NNE,25,5.0,6.0,85,0.00,,,0.00,Wunderground v.1.15,2013-09-14 03:30:00,
2013-09-14 04:40:00,52.6,48.2,30.01,NNW,343,6.0,6.0,85,0.00,,,0.00,Wunderground v.1.15,2013-09-14 03:40:00,
2013-09-14 04:45:00,52.7,48.3,30.01,NNE,25,5.0,6.0,85,0.00,,,0.00,Wunderground v.1.15,2013-09-14 03:45:00,
2013-09-14 04:55:00,52.5,47.8,30.00,North,10,6.0,10.0,84,0.00,,,0.00,Wunderground v.1.15,2013-09-14 03:55:00,
2013-09-14 05:00:00,52.5,48.1,30.00,NNE,30,6.0,6.0,85,0.00,,,0.00,Wunderground v.1.15,2013-09-14 04:00:00,
2013-09-14 05:05:00,52.5,48.1,30.01,NNW,337,5.0,6.0,85,0.00,,,0.00,Wunderground v.1.15,2013-09-14 04:05:00,
2013-09-14 05:10:00,52.5,48.1,30.01,NNE,24,5.0,5.0,85,0.00,,,0.00,Wunderground v.1.15,2013-09-14 04:10:00,
2013-09-14 05:20:00,52.7,48.3,30.00,North,351,5.0,5.0,85,0.00,,,0.00,Wunderground v.1.15,2013-09-14 04:20:00,
2013-09-14 05:25:00,52.7,48.3,30.01,NNE,15,4.0,5.0,85,0.00,,,0.00,Wunderground v.1.15,2013-09-14 04:25:00,
2013-09-14 05:30:00,52.7,48.3,30.01,North,9,4.0,4.0,85,0.00,,,0.00,Wunderground v.1.15,2013-09-14 04:30:00,
2013-09-14 05:40:00,52.8,48.1,30.01,NNE,32,5.0,5.0,84,0.00,,,0.00,Wunderground v.1.15,2013-09-14 04:40:00,
2013-09-14 05:50:00,52.8,48.4,30.01,NNE,17,4.0,4.0,85,0.00,,,0.00,Wunderground v.1.15,2013-09-14 04:50:00,
2013-09-14 06:00:00,52.7,48.3,30.01,NNE,26,6.0,9.0,85,0.00,,,0.00,Wunderground v.1.15,2013-09-14 05:00:00,
2013-09-14 06:05:00,52.8,48.7,30.01,NE,34,6.0,9.0,86,0.00,,,0.00,Wunderground v.1.15,2013-09-14 05:05:00,
2013-09-14 06:10:00,52.9,48.5,30.00,NNE,31,6.0,6.0,85,0.00,,,0.00,Wunderground v.1.15,2013-09-14 05:10:00,
2013-09-14 06:15:00,53.1,48.7,30.01,North,360,6.0,9.0,85,0.00,,,0.00,Wunderground v.1.15,2013-09-14 05:15:00,
2013-09-14 06:25:00,53.3,49.2,30.01,North,5,4.0,6.0,86,0.00,,,0.00,Wunderground v.1.15,2013-09-14 05:25:00,
2013-09-14 06:30:00,53.3,48.9,30.01,NNE,33,5.0,10.0,85,0.00,,,0.00,Wunderground v.1.15,2013-09-14 05:30:00,
2013-09-14 06:40:00,53.5,49.4,30.01,NNE,27,4.0,4.0,86,0.00,,,0.00,Wunderground v.1.15,2013-09-14 05:40:00,
2013-09-14 06:45:00,53.5,49.4,30.01,North,360,4.0,4.0,86,0.00,,,0.00,Wunderground v.1.15,2013-09-14 05:45:00,
2013-09-14 06:50:00,53.6,49.5,30.01,NE,42,5.0,5.0,86,0.00,,,0.00,Wunderground v.1.15,2013-09-14 05:50:00,
2013-09-14 07:00:00,53.6,49.5,30.01,NW,319,4.0,4.0,86,0.00,,,0.00,Wunderground v.1.15,2013-09-14 06:00:00,
2013-09-14 07:10:00,53.8,49.7,30.01,NNE,13,5.0,7.0,86,0.00,,,0.00,Wunderground v.1.15,2013-09-14 06:10:00,
2013-09-14 07:20:00,53.7,49.3,30.01,NE,41,5.0,5.0,85,0.00,,,0.00,Wunderground v.1.15,2013-09-14 06:20:00,
2013-09-14 07:25:00,53.9,49.5,30.01,NE,42,6.0,6.0,85,0.00,,,0.00,Wunderground v.1.15,2013-09-14 06:25:00,
2013-09-14 07:30:00,53.9,49.5,30.01,North,350,6.0,6.0,85,0.00,,,0.00,Wunderground v.1.15,2013-09-14 06:30:00,
2013-09-14 07:35:00,53.9,49.5,30.02,North,9,7.0,7.0,85,0.00,,,0.00,Wunderground v.1.15,2013-09-14 06:35:00,
2013-09-14 07:45:00,54.1,49.4,30.02,NE,38,6.0,8.0,84,0.00,,,0.00,Wunderground v.1.15,2013-09-14 06:45:00,
2013-09-14 07:55:00,54.2,49.5,30.02,NE,51,6.0,9.0,84,0.00,,,0.00,Wunderground v.1.15,2013-09-14 06:55:00,
2013-09-14 08:00:00,54.2,49.5,30.02,North,355,6.0,6.0,84,0.00,,,0.00,Wunderground v.1.15,2013-09-14 07:00:00,
2013-09-14 08:10:00,54.2,49.5,30.02,North,5,6.0,8.0,84,0.00,,,0.00,Wunderground v.1.15,2013-09-14 07:10:00,
2013-09-14 08:20:00,54.4,50.0,30.02,North,355,6.0,7.0,85,0.00,,,0.00,Wunderground v.1.15,2013-09-14 07:20:00,
2013-09-14 08:30:00,54.3,49.6,30.03,North,355,7.0,7.0,84,0.00,,,0.00,Wunderground v.1.15,2013-09-14 07:30:00,
2013-09-14 08:35:00,54.3,49.2,30.03,NNE,14,6.0,7.0,83,0.00,,,0.00,Wunderground v.1.15,2013-09-14 07:35:00,
2013-09-14 08:45:00,54.1,48.4,30.03,North,355,5.0,6.0,81,0.00,,,0.00,Wunderground v.1.15,2013-09-14 07:45:00,
2013-09-14 08:55:00,54.4,49.0,30.03,NW,317,5.0,6.0,82,0.00,,,0.00,Wunderground v.1.15,2013-09-14 07:55:00,
2013-09-14 09:05:00,54.9,49.8,30.04,North,11,7.0,7.0,83,0.00,,,0.00,Wunderground v.1.15,2013-09-14 08:05:00,
2013-09-14 09:15:00,55.5,50.1,30.04,NNE,15,6.0,7.0,82,0.00,,,0.00,Wunderground v.1.15,2013-09-14 08:15:00,
2013-09-14 09:25:00,55.9,50.2,30.04,NNE,13,9.0,9.0,81,0.00,,,0.00,Wunderground v.1.15,2013-09-14 08:25:00,
2013-09-14 09:30:00,55.8,50.1,30.05,NE,38,8.0,10.0,81,0.00,,,0.00,Wunderground v.1.15,2013-09-14 08:30:00,
2013-09-14 09:35:00,55.5,49.1,30.04,NNE,21,8.0,10.0,79,0.00,,,0.00,Wunderground v.1.15,2013-09-14 08:35:00,
2013-09-14 09:45:00,55.2,49.5,30.04,NNW,342,8.0,12.0,81,0.00,,,0.00,Wunderground v.1.15,2013-09-14 08:45:00,
2013-09-14 09:50:00,55.2,49.5,30.04,NNE,12,8.0,8.0,81,0.00,,,0.00,Wunderground v.1.15,2013-09-14 08:50:00,
2013-09-14 10:00:00,55.6,50.2,30.04,NE,34,8.0,10.0,82,0.00,,,0.00,Wunderground v.1.15,2013-09-14 09:00:00,
2013-09-14 10:05:00,55.8,50.1,30.04,NW,324,8.0,10.0,81,0.00,,,0.00,Wunderground v.1.15,2013-09-14 09:05:00,
2013-09-14 10:15:00,56.0,49.2,30.05,NE,35,9.0,10.0,78,0.00,,,0.00,Wunderground v.1.15,2013-09-14 09:15:00,
2013-09-14 10:25:00,56.3,49.9,30.05,NNE,29,9.0,9.0,79,0.00,,,0.00,Wunderground v.1.15,2013-09-14 09:25:00,
2013-09-14 10:30:00,56.6,50.5,30.05,NNE,17,9.0,9.0,80,0.00,,,0.00,Wunderground v.1.15,2013-09-14 09:30:00,
2013-09-14 10:35:00,56.9,51.1,30.05,North,10,8.0,10.0,81,0.00,,,0.00,Wunderground v.1.15,2013-09-14 09:35:00,
2013-09-14 10:45:00,56.3,49.9,30.05,North,355,9.0,9.0,79,0.00,,,0.00,Wunderground v.1.15,2013-09-14 09:45:00,
2013-09-14 10:55:00,56.1,50.3,30.05,NE,35,8.0,8.0,81,0.00,,,0.00,Wunderground v.1.15,2013-09-14 09:55:00,
2013-09-14 11:05:00,56.6,50.8,30.05,NE,38,8.0,12.0,81,0.00,,,0.00,Wunderground v.1.15,2013-09-14 10:05:00,
2013-09-14 11:15:00,57.5,51.7,30.05,North,9,7.0,9.0,81,0.00,,,0.00,Wunderground v.1.15,2013-09-14 10:15:00,
2013-09-14 11:20:00,57.4,51.3,30.06,NNE,17,7.0,7.0,80,0.00,,,0.00,Wunderground v.1.15,2013-09-14 10:20:00,
2013-09-14 11:25:00,57.3,50.8,30.06,NNE,24,7.0,7.0,79,0.00,,,0.00,Wunderground v.1.15,2013-09-14 10:25:00,
2013-09-14 11:35:00,57.7,52.2,30.06,NE,44,6.0,7.0,82,0.00,,,0.00,Wunderground v.1.15,2013-09-14 10:35:00,
2013-09-14 11:45:00,58.2,52.1,30.06,NNE,30,6.0,6.0,80,0.00,,,0.00,Wunderground v.1.15,2013-09-14 10:45:00,
2013-09-14 11:55:00,58.4,51.6,30.06,North,5,5.0,9.0,78,0.00,,,0.00,Wunderground v.1.15,2013-09-14 10:55:00,
2013-09-14 12:05:00,58.3,50.4,30.06,NW,313,5.0,9.0,75,0.00,,,0.00,Wunderground v.1.15,2013-09-14 11:05:00,
2013-09-14 12:15:00,58.5,50.6,30.06,North,355,5.0,7.0,75,0.00,,,0.00,Wunderground v.1.15,2013-09-14 11:15:00,
2013-09-14 12:30:00,59.2,51.3,30.06,North,5,5.0,5.0,75,0.00,,,0.00,Wunderground v.1.15,2013-09-14 11:30:00,
2013-09-14 12:35:00,59.3,50.6,30.06,NNE,13,4.0,5.0,73,0.00,,,0.00,Wunderground v.1.15,2013-09-14 11:35:00,
2013-09-14 12:45:00,59.5,50.8,30.06,NNW,329,4.0,6.0,73,0.00,,,0.00,Wunderground v.1.15,2013-09-14 11:45:00,
2013-09-14 12:55:00,59.5,50.8,30.06,North,9,5.0,5.0,73,0.00,,,0.00,Wunderground v.1.15,2013-09-14 11:55:00,
2013-09-14 13:05:00,59.4,50.7,30.06,WNW,297,5.0,5.0,73,0.00,,,0.00,Wunderground v.1.15,2013-09-14 12:05:00,
2013-09-14 13:15:00,59.5,50.8,30.07,NNW,331,4.0,5.0,73,0.00,,,0.00,Wunderground v.1.15,2013-09-14 12:15:00,
2013-09-14 13:20:00,59.9,51.2,30.07,WNW,298,5.0,5.0,73,0.00,,,0.00,Wunderground v.1.15,2013-09-14 12:20:00,
2013-09-14 13:25:00,60.0,50.9,30.07,NNW,331,4.0,5.0,72,0.00,,,0.00,Wunderground v.1.15,2013-09-14 12:25:00,
2013-09-14 13:35:00,59.4,51.1,30.07,North,5,4.0,6.0,74,0.00,,,0.00,Wunderground v.1.15,2013-09-14 12:35:00,
2013-09-14 13:40:00,59.5,51.2,30.06,NNW,346,5.0,5.0,74,0.00,,,0.00,Wunderground v.1.15,2013-09-14 12:40:00,
2013-09-14 13:50:00,59.8,51.5,30.07,North,355,5.0,5.0,74,0.00,,,0.00,Wunderground v.1.15,2013-09-14 12:50:00,
2013-09-14 14:00:00,60.0,50.9,30.07,WNW,302,5.0,5.0,72,0.00,,,0.00,Wunderground v.1.15,2013-09-14 13:00:00,
2013-09-14 14:10:00,59.9,51.2,30.07,North,11,5.0,5.0,73,0.00,,,0.00,Wunderground v.1.15,2013-09-14 13:10:00,
2013-09-14 14:15:00,59.8,50.8,30.06,NNW,347,4.0,5.0,72,0.00,,,0.00,Wunderground v.1.15,2013-09-14 13:15:00,
2013-09-14 14:25:00,60.2,51.9,30.07,NNW,344,5.0,7.0,74,0.00,,,0.00,Wunderground v.1.15,2013-09-14 13:25:00,
2013-09-14 14:35:00,59.3,50.6,30.07,North,5,5.0,12.0,73,0.00,,,0.00,Wunderground v.1.15,2013-09-14 13:35:00,
2013-09-14 14:45:00,58.6,50.3,30.06,NNW,329,6.0,10.0,74,0.00,,,0.00,Wunderground v.1.15,2013-09-14 13:45:00,
2013-09-14 14:50:00,58.3,50.0,30.06,NNW,342,6.0,6.0,74,0.00,,,0.00,Wunderground v.1.15,2013-09-14 13:50:00,
2013-09-14 15:00:00,58.2,50.0,30.06,NNW,336,5.0,6.0,74,0.00,,,0.00,Wunderground v.1.15,2013-09-14 14:00:00,
2013-09-14 15:10:00,58.2,50.0,30.06,North,360,5.0,7.0,74,0.00,,,0.00,Wunderground v.1.15,2013-09-14 14:10:00,
2013-09-14 15:20:00,58.1,49.5,30.05,NNW,337,5.0,5.0,73,0.00,,,0.00,Wunderground v.1.15,2013-09-14 14:20:00,
2013-09-14 15:30:00,58.2,50.0,30.05,North,355,5.0,7.0,74,0.00,,,0.00,Wunderground v.1.15,2013-09-14 14:30:00,
2013-09-14 15:35:00,58.3,50.4,30.05,WSW,257,5.0,7.0,75,0.00,,,0.00,Wunderground v.1.15,2013-09-14 14:35:00,
2013-09-14 15:45:00,58.6,50.7,30.05,NNW,346,5.0,10.0,75,0.00,,,0.00,Wunderground v.1.15,2013-09-14 14:45:00,
2013-09-14 15:55:00,58.5,50.2,30.05,North,9,6.0,12.0,74,0.00,,,0.00,Wunderground v.1.15,2013-09-14 14:55:00,
2013-09-14 16:05:00,58.1,50.6,30.05,NNW,340,5.0,8.0,76,0.00,,,0.00,Wunderground v.1.15,2013-09-14 15:05:00,
2013-09-14 16:15:00,58.0,50.5,30.05,NNE,15,5.0,6.0,76,0.00,,,0.00,Wunderground v.1.15,2013-09-14 15:15:00,
2013-09-14 16:20:00,57.9,50.4,30.06,North,355,5.0,5.0,76,0.00,,,0.00,Wunderground v.1.15,2013-09-14 15:20:00,
2013-09-14 16:30:00,57.8,50.3,30.05,NE,37,6.0,6.0,76,0.00,,,0.00,Wunderground v.1.15,2013-09-14 15:30:00,
2013-09-14 16:40:00,58.0,50.8,30.06,NNE,20,6.0,6.0,77,0.00,,,0.00,Wunderground v.1.15,2013-09-14 15:40:00,
2013-09-14 16:50:00,58.0,50.8,30.05,North,10,5.0,5.0,77,0.00,,,0.00,Wunderground v.1.15,2013-09-14 15:50:00,
2013-09-14 17:00:00,57.7,50.2,30.05,NNW,342,5.0,5.0,76,0.00,,,0.00,Wunderground v.1.15,2013-09-14 16:00:00,
2013-09-14 17:10:00,57.3,50.1,30.05,North,5,4.0,6.0,77,0.00,,,0.00,Wunderground v.1.15,2013-09-14 16:10:00,
2013-09-14 17:15:00,57.2,50.1,30.05,North,360,5.0,6.0,77,0.00,,,0.00,Wunderground v.1.15,2013-09-14 16:15:00,
2013-09-14 17:25:00,57.2,50.1,30.05,North,11,5.0,5.0,77,0.00,,,0.00,Wunderground v.1.15,2013-09-14 16:25:00,
2013-09-14 17:30:00,57.2,50.4,30.06,NNW,344,4.0,4.0,78,0.00,,,0.00,Wunderground v.1.15,2013-09-14 16:30:00,
2013-09-14 17:40:00,57.1,50.3,30.06,North,355,5.0,9.0,78,0.00,,,0.00,Wunderground v.1.15,2013-09-14 16:40:00,
2013-09-14 17:50:00,57.0,50.5,30.06,NW,318,5.0,5.0,79,0.00,,,0.00,Wunderground v.1.15,2013-09-14 16:50:00,
2013-09-14 17:55:00,57.0,50.5,30.06,North,355,6.0,10.0,79,0.00,,,0.00,Wunderground v.1.15,2013-09-14 16:55:00,
2013-09-14 18:00:00,56.8,50.4,30.07,NNW,346,6.0,11.0,79,0.00,,,0.00,Wunderground v.1.15,2013-09-14 17:00:00,
2013-09-14 18:10:00,56.6,50.8,30.07,NNW,327,6.0,6.0,81,0.00,,,0.00,Wunderground v.1.15,2013-09-14 17:10:00,
2013-09-14 18:20:00,56.6,50.8,30.07,NNW,348,5.0,6.0,81,0.00,,,0.00,Wunderground v.1.15,2013-09-14 17:20:00,
2013-09-14 18:25:00,56.6,50.8,30.07,WNW,298,5.0,6.0,81,0.00,,,0.00,Wunderground v.1.15,2013-09-14 17:25:00,
2013-09-14 18:30:00,56.5,50.4,30.07,NNW,334,6.0,6.0,80,0.00,,,0.00,Wunderground v.1.15,2013-09-14 17:30:00,
2013-09-14 18:35:00,56.4,50.3,30.07,North,360,6.0,6.0,80,0.00,,,0.00,Wunderground v.1.15,2013-09-14 17:35:00,
2013-09-14 18:40:00,56.2,50.4,30.08,North,5,5.0,5.0,81,0.00,,,0.00,Wunderground v.1.15,2013-09-14 17:40:00,
2013-09-14 18:50:00,55.9,49.8,30.08,NNW,332,6.0,6.0,80,0.00,,,0.00,Wunderground v.1.15,2013-09-14 17:50:00,
2013-09-14 19:00:00,55.7,49.6,30.08,NW,311,6.0,6.0,80,0.00,,,0.00,Wunderground v.1.15,2013-09-14 18:00:00,
2013-09-14 19:05:00,55.7,49.6,30.08,North,5,6.0,6.0,80,0.00,,,0.00,Wunderground v.1.15,2013-09-14 18:05:00,
2013-09-14 19:15:00,55.7,50.0,30.08,NNE,19,5.0,11.0,81,0.00,,,0.00,Wunderground v.1.15,2013-09-14 18:15:00,
2013-09-14 19:25:00,55.5,49.4,30.09,North,10,6.0,6.0,80,0.00,,,0.00,Wunderground v.1.15,2013-09-14 18:25:00,
2013-09-14 19:30:00,55.4,49.3,30.09,NNW,338,5.0,5.0,80,0.00,,,0.00,Wunderground v.1.15,2013-09-14 18:30:00,
2013-09-14 19:40:00,55.2,49.5,30.09,North,350,5.0,5.0,81,0.00,,,0.00,Wunderground v.1.15,2013-09-14 18:40:00,
2013-09-14 19:50:00,55.1,49.7,30.09,North,11,5.0,6.0,82,0.00,,,0.00,Wunderground v.1.15,2013-09-14 18:50:00,
2013-09-14 20:00:00,54.9,49.2,30.09,NNE,28,5.0,11.0,81,0.00,,,0.00,Wunderground v.1.15,2013-09-14 19:00:00,
2013-09-14 20:05:00,54.9,49.2,30.09,NE,36,5.0,11.0,81,0.00,,,0.00,Wunderground v.1.15,2013-09-14 19:05:00,
2013-09-14 20:15:00,54.9,49.5,30.09,North,360,5.0,7.0,82,0.00,,,0.00,Wunderground v.1.15,2013-09-14 19:15:00,
2013-09-14 20:20:00,54.9,49.5,30.09,NNE,16,5.0,5.0,82,0.00,,,0.00,Wunderground v.1.15,2013-09-14 19:20:00,
2013-09-14 20:25:00,54.8,49.4,30.09,NE,36,5.0,5.0,82,0.00,,,0.00,Wunderground v.1.15,2013-09-14 19:25:00,
2013-09-14 20:35:00,54.7,49.3,30.09,NNE,32,5.0,10.0,82,0.00,,,0.00,Wunderground v.1.15,2013-09-14 19:35:00,
2013-09-14 20:40:00,54.7,49.3,30.09,North,9,5.0,5.0,82,0.00,,,0.00,Wunderground v.1.15,2013-09-14 19:40:00,
2013-09-14 20:50:00,54.8,49.4,30.10,NNE,17,5.0,9.0,82,0.00,,,0.00,Wunderground v.1.15,2013-09-14 19:50:00,
2013-09-14 21:00:00,54.8,49.4,30.10,North,11,6.0,6.0,82,0.00,,,0.00,Wunderground v.1.15,2013-09-14 20:00:00,
2013-09-14 21:10:00,54.8,49.4,30.10,North,360,4.0,8.0,82,0.00,,,0.00,Wunderground v.1.15,2013-09-14 20:10:00,
2013-09-14 21:15:00,54.7,49.3,30.10,NNE,19,3.0,8.0,82,0.00,,,0.00,Wunderground v.1.15,2013-09-14 20:15:00,
2013-09-14 21:25:00,54.6,48.9,30.10,NNE,22,4.0,4.0,81,0.00,,,0.00,Wunderground v.1.15,2013-09-14 20:25:00,
2013-09-14 21:30:00,54.5,48.8,30.11,NNE,27,4.0,4.0,81,0.00,,,0.00,Wunderground v.1.15,2013-09-14 20:30:00,
2013-09-14 21:40:00,54.4,48.7,30.10,North,10,4.0,4.0,81,0.00,,,0.00,Wunderground v.1.15,2013-09-14 20:40:00,
2013-09-14 21:45:00,54.4,48.7,30.10,North,11,4.0,4.0,81,0.00,,,0.00,Wunderground v.1.15,2013-09-14 20:45:00,
2013-09-14 21:55:00,54.2,48.2,30.10,NNE,29,4.0,4.0,80,0.00,,,0.00,Wunderground v.1.15,2013-09-14 20:55:00,
2013-09-14 22:05:00,53.8,47.8,30.11,North,9,3.0,3.0,80,0.00,,,0.00,Wunderground v.1.15,2013-09-14 21:05:00,
2013-09-14 22:15:00,53.9,48.9,30.11,NNE,15,3.0,3.0,83,0.00,,,0.00,Wunderground v.1.15,2013-09-14 21:15:00,
2013-09-14 22:20:00,53.9,48.9,30.11,North,5,3.0,3.0,83,0.00,,,0.00,Wunderground v.1.15,2013-09-14 21:20:00,
2013-09-14 22:30:00,53.8,48.4,30.11,NNE,15,3.0,3.0,82,0.00,,,0.00,Wunderground v.1.15,2013-09-14 21:30:00,
2013-09-14 22:40:00,53.8,48.8,30.11,North,355,3.0,4.0,83,0.00,,,0.00,Wunderground v.1.15,2013-09-14 21:40:00,
2013-09-14 22:50:00,53.7,48.7,30.10,NNE,27,3.0,4.0,83,0.00,,,0.00,Wunderground v.1.15,2013-09-14 21:50:00,
2013-09-14 23:00:00,53.3,47.3,30.09,NNE,12,3.0,3.0,80,0.00,,,0.00,Wunderground v.1.15,2013-09-14 22:00:00,
2013-09-14 23:10:00,52.8,46.5,30.09,NNE,13,2.0,2.0,79,0.00,,,0.00,Wunderground v.1.15,2013-09-14 22:10:00,
2013-09-14 23:20:00,52.3,46.0,30.09,NNE,13,1.0,3.0,79,0.00,,,0.00,Wunderground v.1.15,2013-09-14 22:20:00,
2013-09-14 23:30:00,51.7,45.7,30.10,NNE,13,1.0,1.0,80,0.00,,,0.00,Wunderground v.1.15,2013-09-14 22:30:00,
2013-09-14 23:35:00,51.4,45.8,30.10,NNE,13,0.0,2.0,81,0.00,,,0.00,Wunderground v.1.15,2013-09-14 22:35:00,
2013-09-14 23:40:00,51.2,45.6,30.10,NNE,13,1.0,2.0,81,0.00,,,0.00,Wunderground v.1.15,2013-09-14 22:40:00,
2013-09-14 23:50:00,50.9,45.9,30.10,NNE,13,2.0,2.0,83,0.00,,,0.00,Wunderground v.1.15,2013-09-14 22:50:00,
2013-09-14 23:55:00,50.9,45.9,30.10,NNE,14,3.0,3.0,83,0.00,,,0.00,Wunderground v.1.15,2013-09-14 22:55:00,